Regional Weather Roundup
Issued by NWS Bismarck, ND

Current Version | Previous Version | Text Only | Print | Product List | Glossary On
Versions: 1 2 3 4 5 6 7 8 9 10 11 12 13 14 15 16 17 18 19 20 21 22 23 24 25 26 27 28 29 30 31 32 33 34 35 36 37 38 39 40 41 42 43 44 45 46 47 48 49 50
000
ASUS43 KBIS 202110
RWRBIS

NWR BROADCAST TEXT
NATIONAL WEATHER SERVICE BISMARCK ND
300 PM CST SAT JAN 20 2018

NOTE: "FAIR" INDICATES FEW OR NO CLOUDS BELOW 12,000 FEET WITH NO
SIGNIFICANT WEATHER AND/OR OBSTRUCTIONS TO VISIBILITY.


CITY           SKY/WX    TMP DP  RH WIND       PRES   REMARKS
WILLISTON      FAIR      32  21  64 W10       29.84S
MINOT          FAIR      38  23  55 SW17      29.79R
MINOT AFB      SUNNY     37  26  63 W12       29.77S
BISMARCK       FAIR      41  26  55 W15       29.86S
DICKINSON      FAIR      36  23  59 W12       29.84R
GARRISON         N/A     38  26  62 W13       29.82S
HETTINGER ARPT PTSUNNY   38  25  59 W12       29.88S
JAMESTOWN      FAIR      40  30  67 W8        29.82R
CARRINGTON     FAIR      37  30  75 W14       29.84S
HAZEN            N/A     37  27  65 W12       29.86S
LINTON           N/A     41  28  60 W8        29.89S
MANDAN         FAIR      39  27  60 W13       29.85S
OAKES            N/A     43  30  61 W9        29.86F
RUGBY          FAIR      32  27  80 W10       29.79R
STANLEY        FAIR      32  25  74 W13       29.82S
TIOGA          FAIR      32  25  74 W14       29.82R
WATFORD CITY   FAIR      36  25  64 W9        29.85R
$$

CITY           SKY/WX    TMP DP  RH WIND       PRES   REMARKS
GRAND FORKS    FAIR      36  30  79 SW8       29.81R
GRAND FORKS AF FAIR      38  27  65 W10       29.81R
DEVILS LAKE    FAIR      34  26  72 W15       29.80R
FARGO          FAIR      38  31  76 SW7       29.84R
CANDO          FAIR      34  25  69 W14       29.80R
CAVALIER         N/A     36  28  75 W10       29.78R
GRAFTON        FAIR      36  30  80 SW9       29.81R
GWINNER          N/A     43  30  61 W8        29.86S
LANGDON        FAIR      34  30  86 W8        29.76S
ROLLA          FAIR      34  27  75 SW9       29.75S
WALHALLA       FAIR      37  28  70 W7        29.77S
$$

CITY           SKY/WX    TMP DP  RH WIND       PRES   REMARKS
ABERDEEN       MOSUNNY   50  30  46 W7        29.88S
MOBRIDGE       MOSUNNY   46  32  58 W6        29.86S
BUFFALO          N/A     37  24  59 NW12      29.83R
RAPID CITY     CLOUDY    39  28  64 N12       29.88S
GLASGOW        SUNNY     32  20  61 NW3       29.86F
SIDNEY         SUNNY     36  24  62 NW21      29.84R
WOLF POINT     SUNNY     33  21  61 W7        29.86F
GLENDIVE       MOSUNNY   34  25  69 CALM      29.88S
MILES CITY     PTSUNNY   33  24  69 W8        29.90S
BAKER          PTSUNNY   35  23  61 W16       29.88F
$$

CITY           SKY/WX    TMP DP  RH WIND       PRES   REMARKS
BILLINGS       PTSUNNY   36  20  52 W13       29.90F
GREAT FALLS    SUNNY     40  18  41 SW20G26   29.84S
REGINA         MOSUNNY   34  25  69 W9        29.78R
ESTEVAN        MOSUNNY   32  23  69 W13       29.79R
$$




USA.gov is the U.S. government's official web portal to all federal, state and local government web resources and services.